| time (UTC) | temp F | wind direction | speed MPH | gust MPH | rain 1hr in | rain 24hr in | rain mn in | humidity % | barometer mb |
| 20260505032051 | 81 | 354 | 1.0 | 8.0 | 0.00 | 0.00 | 0.00 | 81 | 1018.7 |
| 20260505031549 | 81 | 341 | 2.0 | 4.0 | 0.00 | 0.00 | 0.00 | 81 | 1018.9 |
| 20260505031045 | 81 | 338 | 2.0 | 7.0 | 0.00 | 0.00 | 0.00 | 81 | 1018.9 |
| 20260505030542 | 81 | 331 | 1.0 | 3.0 | 0.00 | 0.00 | 0.00 | 81 | 1018.8 |
| 20260505030038 | 81 | 17 | 1.0 | 3.0 | 0.00 | 0.00 | 0.00 | 81 | 1018.6 |
| 20260505025533 | 81 | 344 | 0.0 | 2.0 | 0.00 | 0.00 | 0.00 | 81 | 1018.8 |
| 20260505025033 | 81 | 333 | 1.0 | 2.0 | 0.00 | 0.00 | 0.00 | 81 | 1018.8 |
| 20260505024529 | 81 | 317 | 1.0 | 3.0 | 0.00 | 0.00 | 0.00 | 80 | 1018.6 |
| 20260505024026 | 81 | 0 | 2.0 | 6.0 | 0.00 | 0.00 | 0.00 | 80 | 1018.6 |
| 20260505023523 | 81 | 350 | 1.0 | 4.0 | 0.00 | 0.00 | 0.00 | 80 | 1018.8 |
| 20260505023021 | 81 | 8 | 1.0 | 2.0 | 0.00 | 0.00 | 0.00 | 80 | 1018.6 |
| 20260505022519 | 81 | 170 | 0.0 | 4.0 | 0.00 | 0.00 | 0.00 | 80 | 1018.6 |
| 20260505022016 | 81 | 328 | 2.0 | 6.0 | 0.00 | 0.00 | 0.00 | 80 | 1018.6 |
| 20260505021512 | 81 | 331 | 4.0 | 9.0 | 0.00 | 0.00 | 0.00 | 80 | 1018.6 |
| 20260505021008 | 81 | 66 | 2.0 | 4.0 | 0.00 | 0.00 | 0.00 | 80 | 1018.7 |
| 20260505020503 | 81 | 26 | 4.0 | 6.0 | 0.00 | 0.00 | 0.00 | 80 | 1018.7 |
| 20260505020000 | 81 | 194 | 2.0 | 4.0 | 0.00 | 0.00 | 0.00 | 80 | 1018.5 |
| 20260505015457 | 81 | 245 | 0.0 | 2.0 | 0.00 | 0.00 | 0.00 | 80 | 1018.6 |
| 20260505014954 | 81 | 4 | 2.0 | 4.0 | 0.00 | 0.00 | 0.00 | 80 | 1018.5 |
| 20260505014451 | 81 | 57 | 2.0 | 3.0 | 0.00 | 0.00 | 0.00 | 80 | 1018.6 |
| 20260505013948 | 81 | 20 | 1.0 | 6.0 | 0.00 | 0.00 | 0.00 | 79 | 1018.4 |
| 20260505013445 | 81 | 20 | 2.0 | 3.0 | 0.00 | 0.00 | 0.00 | 79 | 1018.5 |
| 20260505012943 | 81 | 345 | 1.0 | 3.0 | 0.00 | 0.00 | 0.00 | 80 | 1018.3 |
| 20260505012441 | 81 | 316 | 1.0 | 3.0 | 0.00 | 0.00 | 0.00 | 80 | 1018.2 |
| 20260505011937 | 81 | 38 | 2.0 | 7.0 | 0.00 | 0.00 | 0.00 | 80 | 1018.2 |
| 20260505011433 | 81 | 114 | 3.0 | 6.0 | 0.00 | 0.00 | 0.00 | 80 | 1018.1 |
| 20260505010930 | 81 | 340 | 1.0 | 3.0 | 0.00 | 0.00 | 0.00 | 80 | 1018.2 |
| 20260505010426 | 81 | 40 | 2.0 | 7.0 | 0.00 | 0.00 | 0.00 | 80 | 1018.1 |
| 20260505005922 | 81 | 218 | 3.0 | 6.0 | 0.00 | 0.00 | 0.00 | 80 | 1017.9 |
| 20260505005419 | 81 | 337 | 3.0 | 6.0 | 0.00 | 0.00 | 0.00 | 80 | 1018.0 |
| 20260505004916 | 82 | 249 | 1.0 | 4.0 | 0.00 | 0.00 | 0.00 | 80 | 1017.8 |
| 20260505004413 | 82 | 357 | 1.0 | 10.0 | 0.00 | 0.00 | 0.00 | 79 | 1017.8 |
| 20260505003910 | 82 | 192 | 4.0 | 7.0 | 0.00 | 0.00 | 0.00 | 80 | 1017.7 |
| 20260505003407 | 82 | 352 | 1.0 | 4.0 | 0.00 | 0.00 | 0.00 | 79 | 1017.6 |
| 20260505002903 | 82 | 36 | 1.0 | 2.0 | 0.00 | 0.00 | 0.00 | 79 | 1017.7 |
| 20260505002400 | 82 | 20 | 2.0 | 9.0 | 0.00 | 0.00 | 0.00 | 79 | 1017.5 |
| 20260505001858 | 82 | 24 | 1.0 | 2.0 | 0.00 | 0.00 | 0.00 | 79 | 1017.5 |
| 20260505001355 | 82 | 35 | 2.0 | 4.0 | 0.00 | 0.00 | 0.00 | 79 | 1017.5 |
| 20260505000853 | 82 | 341 | 1.0 | 6.0 | 0.00 | 0.00 | 0.00 | 78 | 1017.4 |
| 20260505000351 | 82 | 353 | 1.0 | 3.0 | 0.00 | 0.00 | 0.00 | 78 | 1017.3 |
| 20260504235846 | 82 | 357 | 0.0 | 3.0 | 0.00 | 0.00 | 0.00 | 78 | 1017.4 |
| 20260504235343 | 82 | 60 | 2.0 | 3.0 | 0.00 | 0.00 | 0.00 | 77 | 1017.1 |
| 20260504234840 | 82 | 348 | 0.0 | 4.0 | 0.00 | 0.00 | 0.00 | 78 | 1017.2 |
| 20260504234338 | 82 | 351 | 2.0 | 3.0 | 0.00 | 0.00 | 0.00 | 77 | 1017.1 |
| 20260504233834 | 83 | 41 | 1.0 | 3.0 | 0.00 | 0.00 | 0.00 | 77 | 1017.0 |
| 20260504233330 | 83 | 260 | 2.0 | 3.0 | 0.00 | 0.00 | 0.00 | 76 | 1017.2 |
| 20260504232827 | 83 | 327 | 1.0 | 7.0 | 0.00 | 0.00 | 0.00 | 76 | 1017.0 |
| 20260504232324 | 83 | 344 | 2.0 | 3.0 | 0.00 | 0.00 | 0.00 | 75 | 1016.8 |
| 20260504231821 | 83 | 58 | 2.0 | 6.0 | 0.00 | 0.00 | 0.00 | 75 | 1017.0 |
| 20260504231317 | 83 | 3 | 0.0 | 3.0 | 0.00 | 0.00 | 0.00 | 74 | 1016.6 |
| 20260504230813 | 83 | 4 | 2.0 | 7.0 | 0.00 | 0.00 | 0.00 | 74 | 1016.7 |
| 20260504230311 | 83 | 79 | 2.0 | 7.0 | 0.00 | 0.00 | 0.00 | 73 | 1016.8 |
| 20260504225810 | 83 | 28 | 1.0 | 15.0 | 0.00 | 0.00 | 0.00 | 73 | 1016.8 |
| 20260504225306 | 83 | 358 | 4.0 | 6.0 | 0.00 | 0.00 | 0.00 | 73 | 1016.4 |
| 20260504224803 | 83 | 224 | 1.0 | 6.0 | 0.00 | 0.00 | 0.00 | 73 | 1016.5 |
| 20260504224300 | 83 | 346 | 1.0 | 8.0 | 0.00 | 0.00 | 0.00 | 72 | 1016.2 |
| 20260504223757 | 84 | 320 | 1.0 | 6.0 | 0.00 | 0.00 | 0.00 | 72 | 1016.2 |
| 20260504223252 | 84 | 322 | 3.0 | 7.0 | 0.00 | 0.00 | 0.00 | 72 | 1016.3 |
| 20260504222749 | 84 | 347 | 3.0 | 6.0 | 0.00 | 0.00 | 0.00 | 71 | 1016.2 |
| 20260504222246 | 85 | 146 | 2.0 | 4.0 | 0.00 | 0.00 | 0.00 | 71 | 1016.0 |
| 20260504221744 | 85 | 210 | 1.0 | 7.0 | 0.00 | 0.00 | 0.00 | 69 | 1016.1 |
| 20260504221241 | 85 | 352 | 2.0 | 8.0 | 0.00 | 0.00 | 0.00 | 70 | 1016.1 |
| 20260504220737 | 85 | 273 | 2.0 | 6.0 | 0.00 | 0.00 | 0.00 | 70 | 1015.9 |
| 20260504220235 | 85 | 340 | 3.0 | 8.0 | 0.00 | 0.00 | 0.00 | 70 | 1015.9 |
| 20260504215732 | 85 | 71 | 5.0 | 8.0 | 0.00 | 0.00 | 0.00 | 69 | 1016.1 |
| 20260504215228 | 86 | 96 | 3.0 | 7.0 | 0.00 | 0.00 | 0.00 | 68 | 1015.8 |
| 20260504214724 | 86 | 353 | 2.0 | 6.0 | 0.00 | 0.00 | 0.00 | 67 | 1016.2 |
| 20260504214221 | 85 | 35 | 3.0 | 9.0 | 0.00 | 0.00 | 0.00 | 67 | 1016.0 |
| 20260504213718 | 85 | 18 | 5.0 | 10.0 | 0.00 | 0.00 | 0.00 | 67 | 1015.7 |
| 20260504213214 | 86 | 170 | 2.0 | 9.0 | 0.00 | 0.00 | 0.00 | 67 | 1015.9 |
| 20260504212711 | 87 | 354 | 3.0 | 4.0 | 0.00 | 0.00 | 0.00 | 65 | 1015.7 |
| 20260504212208 | 87 | 280 | 2.0 | 6.0 | 0.00 | 0.00 | 0.00 | 66 | 1015.7 |
| 20260504211705 | 87 | 312 | 2.0 | 7.0 | 0.00 | 0.00 | 0.00 | 66 | 1015.8 |
| 20260504211201 | 87 | 97 | 4.0 | 8.0 | 0.00 | 0.00 | 0.00 | 65 | 1015.7 |
| 20260504210659 | 86 | 40 | 4.0 | 9.0 | 0.00 | 0.00 | 0.00 | 67 | 1015.9 |
| 20260504210155 | 87 | 20 | 3.0 | 7.0 | 0.00 | 0.00 | 0.00 | 64 | 1015.9 |
| 20260504205653 | 87 | 195 | 2.0 | 9.0 | 0.00 | 0.00 | 0.00 | 64 | 1015.9 |
| 20260504205150 | 88 | 91 | 2.0 | 7.0 | 0.00 | 0.00 | 0.00 | 63 | 1015.9 |
| 20260504204648 | 87 | 14 | 2.0 | 7.0 | 0.00 | 0.00 | 0.00 | 63 | 1016.0 |
| 20260504204147 | 88 | 15 | 4.0 | 7.0 | 0.00 | 0.00 | 0.00 | 63 | 1016.2 |
| 20260504203645 | 87 | 8 | 1.0 | 7.0 | 0.00 | 0.00 | 0.00 | 63 | 1016.2 |
| 20260504203143 | 88 | 359 | 3.0 | 7.0 | 0.00 | 0.00 | 0.00 | 62 | 1016.2 |
| 20260504202643 | 88 | 316 | 3.0 | 4.0 | 0.00 | 0.00 | 0.00 | 62 | 1016.4 |
| 20260504202140 | 88 | 62 | 4.0 | 9.0 | 0.00 | 0.00 | 0.00 | 61 | 1016.6 |
| 20260504201637 | 88 | 25 | 5.0 | 8.0 | 0.00 | 0.00 | 0.00 | 63 | 1016.5 |
| 20260504201135 | 89 | 32 | 4.0 | 8.0 | 0.00 | 0.00 | 0.00 | 62 | 1016.4 |
| 20260504200631 | 88 | 13 | 2.0 | 6.0 | 0.00 | 0.00 | 0.00 | 61 | 1016.8 |
| 20260504200128 | 88 | 41 | 6.0 | 10.0 | 0.00 | 0.00 | 0.00 | 62 | 1016.6 |
| 20260504195624 | 89 | 251 | 1.0 | 7.0 | 0.00 | 0.00 | 0.00 | 62 | 1016.7 |
| 20260504195120 | 89 | 289 | 1.0 | 6.0 | 0.00 | 0.00 | 0.00 | 62 | 1016.9 |
| 20260504194617 | 89 | 336 | 1.0 | 4.0 | 0.00 | 0.00 | 0.00 | 63 | 1016.8 |
| 20260504194113 | 89 | 99 | 4.0 | 7.0 | 0.00 | 0.00 | 0.00 | 63 | 1017.1 |
| 20260504193609 | 89 | 313 | 2.0 | 6.0 | 0.00 | 0.00 | 0.00 | 63 | 1016.9 |
| 20260504193108 | 90 | 129 | 2.0 | 7.0 | 0.00 | 0.00 | 0.00 | 61 | 1017.1 |
| 20260504192606 | 89 | 347 | 1.0 | 7.0 | 0.00 | 0.00 | 0.00 | 62 | 1017.2 |
| 20260504192104 | 89 | 255 | 2.0 | 4.0 | 0.00 | 0.00 | 0.00 | 63 | 1017.3 |
| 20260504191602 | 89 | 318 | 2.0 | 6.0 | 0.00 | 0.00 | 0.00 | 64 | 1017.2 |
| 20260504191057 | 90 | 169 | 2.0 | 3.0 | 0.00 | 0.00 | 0.00 | 61 | 1017.4 |
| 20260504190554 | 90 | 97 | 5.0 | 8.0 | 0.00 | 0.00 | 0.00 | 61 | 1017.3 |
| 20260504190050 | 89 | 253 | 2.0 | 10.0 | 0.00 | 0.00 | 0.00 | 64 | 1017.3 |
| 20260504185547 | 89 | 194 | 2.0 | 7.0 | 0.00 | 0.00 | 0.00 | 63 | 1017.4 |
| 20260504185044 | 89 | 64 | 2.0 | 7.0 | 0.00 | 0.00 | 0.00 | 64 | 1017.4 |
| 20260504184539 | 88 | 329 | 2.0 | 9.0 | 0.00 | 0.00 | 0.00 | 65 | 1017.4 |
| 20260504184035 | 89 | 333 | 5.0 | 8.0 | 0.00 | 0.00 | 0.00 | 63 | 1017.4 |
| 20260504183532 | 89 | 307 | 2.0 | 8.0 | 0.00 | 0.00 | 0.00 | 65 | 1017.5 |
| 20260504183030 | 89 | 110 | 2.0 | 7.0 | 0.00 | 0.00 | 0.00 | 62 | 1017.6 |
| 20260504182526 | 89 | 205 | 2.0 | 4.0 | 0.00 | 0.00 | 0.00 | 61 | 1017.6 |
| 20260504182024 | 90 | 60 | 3.0 | 9.0 | 0.00 | 0.00 | 0.00 | 61 | 1017.8 |
| 20260504181521 | 89 | 151 | 3.0 | 8.0 | 0.00 | 0.00 | 0.00 | 62 | 1017.6 |
| 20260504181020 | 89 | 349 | 3.0 | 8.0 | 0.00 | 0.00 | 0.00 | 62 | 1017.7 |
| 20260504180518 | 90 | 268 | 4.0 | 9.0 | 0.00 | 0.00 | 0.00 | 62 | 1017.6 |
| 20260504180016 | 90 | 131 | 3.0 | 8.0 | 0.00 | 0.00 | 0.00 | 62 | 1017.9 |
| 20260504175513 | 89 | 4 | 3.0 | 6.0 | 0.00 | 0.00 | 0.00 | 62 | 1018.1 |
| 20260504175010 | 89 | 243 | 5.0 | 7.0 | 0.00 | 0.00 | 0.00 | 64 | 1017.8 |
| 20260504174508 | 88 | 215 | 3.0 | 10.0 | 0.00 | 0.00 | 0.00 | 64 | 1018.1 |
| 20260504174005 | 88 | 255 | 1.0 | 11.0 | 0.00 | 0.00 | 0.00 | 64 | 1018.2 |
| 20260504173501 | 88 | 247 | 3.0 | 8.0 | 0.00 | 0.00 | 0.00 | 65 | 1018.4 |
| 20260504172959 | 87 | 202 | 4.0 | 9.0 | 0.00 | 0.00 | 0.00 | 65 | 1018.6 |
| 20260504172454 | 87 | 128 | 3.0 | 6.0 | 0.00 | 0.00 | 0.00 | 66 | 1018.6 |
| 20260504171951 | 87 | 120 | 3.0 | 7.0 | 0.00 | 0.00 | 0.00 | 65 | 1018.6 |
| 20260504171448 | 88 | 317 | 4.0 | 7.0 | 0.00 | 0.00 | 0.00 | 64 | 1018.9 |
| 20260504170945 | 88 | 3 | 4.0 | 6.0 | 0.00 | 0.00 | 0.00 | 64 | 1018.9 |
| 20260504170441 | 88 | 354 | 4.0 | 9.0 | 0.00 | 0.00 | 0.00 | 64 | 1018.9 |
| 20260504160401 | 90 | 42 | 5.0 | 7.0 | 0.00 | 0.00 | 0.00 | 62 | 1019.5 |
| 20260504150825 | 88 | 14 | 3.0 | 8.0 | 0.00 | 0.00 | 0.00 | 64 | 1020.1 |
| 20260504150322 | 88 | 356 | 2.0 | 6.0 | 0.00 | 0.00 | 0.00 | 64 | 1020.1 |
| 20260504141252 | 88 | 32 | 3.0 | 6.0 | 0.00 | 0.00 | 0.00 | 65 | 1020.0 |
| 20260504140749 | 87 | 81 | 3.0 | 8.0 | 0.00 | 0.00 | 0.00 | 67 | 1020.2 |
| 20260504140244 | 87 | 354 | 2.0 | 4.0 | 0.00 | 0.00 | 0.00 | 68 | 1020.0 |
| 20260504130713 | 85 | 38 | 3.0 | 4.0 | 0.00 | 0.00 | 0.00 | 73 | 1020.2 |
| 20260504130209 | 84 | 304 | 2.0 | 7.0 | 0.00 | 0.00 | 0.00 | 74 | 1020.1 |
| 20260504120133 | 84 | 121 | 3.0 | 7.0 | 0.00 | 0.00 | 0.00 | 73 | 1019.8 |
| 20260504110600 | 81 | 355 | 1.0 | 2.0 | 0.00 | 0.00 | 0.00 | 78 | 1018.9 |
| 20260504100522 | 80 | 347 | 1.0 | 2.0 | 0.00 | 0.00 | 0.00 | 79 | 1018.4 |
| 20260504081915 | 80 | 38 | 2.0 | 4.0 | 0.00 | 0.00 | 0.00 | 79 | 1017.6 |
| 20260504081412 | 80 | 43 | 2.0 | 6.0 | 0.00 | 0.00 | 0.00 | 79 | 1017.7 |
| 20260504080908 | 80 | 348 | 1.0 | 2.0 | 0.00 | 0.00 | 0.00 | 80 | 1017.6 |
| 20260504080405 | 80 | 325 | 1.0 | 2.0 | 0.00 | 0.00 | 0.00 | 79 | 1017.6 |
| 20260504070332 | 80 | 50 | 2.0 | 3.0 | 0.00 | 0.00 | 0.00 | 81 | 1017.8 |
| 20260504050721 | 80 | 318 | 2.0 | 3.0 | 0.00 | 0.00 | 0.00 | 78 | 1018.6 |
| 20260504050218 | 80 | 28 | 2.0 | 3.0 | 0.00 | 0.00 | 0.00 | 78 | 1018.6 |
| 20260504045715 | 80 | 4 | 1.0 | 1.0 | 0.00 | 0.00 | 0.00 | 78 | 1018.3 |
| 20260504045215 | 80 | 344 | 0.0 | 3.0 | 0.00 | 0.00 | 0.00 | 77 | 1018.8 |
| 20260504044713 | 80 | 36 | 1.0 | 6.0 | 0.00 | 0.00 | 0.00 | 77 | 1018.5 |
| 20260504044210 | 80 | 13 | 1.0 | 4.0 | 0.00 | 0.00 | 0.00 | 76 | 1018.5 |
| 20260504043707 | 80 | 267 | 4.0 | 4.0 | 0.00 | 0.00 | 0.00 | 76 | 1018.9 |
| 20260504043204 | 81 | 342 | 1.0 | 4.0 | 0.00 | 0.00 | 0.00 | 75 | 1018.8 |
| 20260504042702 | 81 | 28 | 2.0 | 4.0 | 0.00 | 0.00 | 0.00 | 74 | 1018.8 |
| 20260504042158 | 81 | 344 | 3.0 | 7.0 | 0.00 | 0.00 | 0.00 | 74 | 1019.0 |
| 20260504041654 | 81 | 23 | 4.0 | 7.0 | 0.00 | 0.00 | 0.00 | 74 | 1018.8 |
| 20260504041150 | 80 | 33 | 1.0 | 3.0 | 0.00 | 0.00 | 0.00 | 74 | 1019.2 |
| 20260504040647 | 80 | 85 | 3.0 | 4.0 | 0.00 | 0.00 | 0.00 | 75 | 1019.2 |
| 20260504040144 | 80 | 273 | 1.0 | 2.0 | 0.00 | 0.00 | 0.00 | 76 | 1019.1 |
| 20260504035641 | 80 | 54 | 2.0 | 4.0 | 0.00 | 0.00 | 0.00 | 76 | 1019.2 |
| 20260504035137 | 81 | 78 | 0.0 | 3.0 | 0.00 | 0.00 | 0.00 | 76 | 1019.2 |
| 20260504034635 | 81 | 351 | 1.0 | 2.0 | 0.00 | 0.00 | 0.00 | 76 | 1019.1 |
| 20260504034132 | 81 | 346 | 0.0 | 4.0 | 0.00 | 0.00 | 0.00 | 76 | 1019.4 |
| 20260504033630 | 81 | 348 | 0.0 | 2.0 | 0.00 | 0.00 | 0.00 | 76 | 1019.4 |
| 20260504033127 | 81 | 316 | 1.0 | 2.0 | 0.00 | 0.00 | 0.00 | 76 | 1019.5 |
| 20260504032624 | 81 | 45 | 2.0 | 3.0 | 0.00 | 0.00 | 0.00 | 76 | 1019.6 |